AIGUAFREDA (Vallès Oriental)





Hora UTC 02:50
Temperatura 13.6 ºC
Sòl 15 cm 14.7 ºC
Humitat 92.7 %
Pressió 1012.9 hPa
Pluja 0.0 mm
Velocitat vent 0.0 km/h
Direcció vent NNE
Radiació solar 0.0 W/m²

Dades diàries 2024-05-30



Hora UTC (hivern +1h; estiu +2h)
Temperatura (ºC) Humitat (%) Pressió (hPa) Velocitat vent (km/h) Precipitació (mm) Radiació solar (W/m²)
Hora UTC Aire Sòl 15 cm Humitat Pressió Vel. Dir. Vel. Max Dir. Intent. màx 5 min. Rad. Sol.
00:05 16.1 17.0 88.0 1014.3 0.0 NNE 0.0 WSW 0.0 2.6
00:10 16.0 16.9 88.6 1014.2 0.0 NNE 0.0 WSW 0.0 1.0
00:15 15.9 16.8 89.0 1014.2 0.0 NNE 0.0 WSW 0.0 0.9
00:20 15.8 16.7 89.3 1014.1 0.0 NNE 0.0 WSW 0.0 1.7
00:25 15.7 16.6 89.6 1014.1 0.0 NNE 0.0 N 0.0 0.8
00:30 15.7 16.6 89.7 1014.2 0.0 NNE 0.0 WNW 0.0 1.3
00:35 15.7 16.4 89.8 1014.2 0.0 NNE 0.0 WNW 0.0 0.6
00:40 15.6 16.4 90.0 1014.1 0.0 NNE 0.0 WNW 0.0 1.2
00:45 15.5 16.3 90.2 1014.1 0.0 NNE 0.0 NNE 0.0 0.7
00:50 15.3 16.2 90.3 1014.1 0.0 NNE 0.0 NNE 0.0 1.1
00:55 15.2 16.1 90.6 1014.1 0.0 NNE 0.0 NNE 0.0 0.7
01:00 15.1 16.0 90.8 1014.1 0.0 NNE 0.0 NNE 0.0 1.4
01:05 15.0 15.9 90.9 1014.1 0.0 NNE 0.0 NNE 0.0 2.1
01:10 15.0 15.8 91.2 1014.1 0.0 NNE 0.0 NNE 0.0 0.7
01:15 14.9 15.8 91.3 1014.0 0.0 NNE 0.0 NNE 0.0 0.4
01:20 14.8 15.7 91.5 1014.0 0.0 NNE 0.0 NNE 0.0 0.2
01:25 14.7 15.6 91.6 1013.9 0.0 NNE 0.0 NNE 0.0 0.5
01:30 14.6 15.5 91.8 1013.9 0.0 NNE 0.0 NE 0.0 0.1
01:35 14.5 15.5 92.0 1014.0 0.0 NNE 0.0 NE 0.0 0.1
01:40 14.5 15.4 92.1 1013.8 0.0 NNE 0.0 NE 0.0 0.0
01:45 14.5 15.4 92.3 1013.8 0.0 NNE 0.0 NE 0.0 0.0
01:50 14.4 15.4 92.3 1013.6 0.0 NNE 0.0 E 0.0 0.1
01:55 14.4 15.4 92.4 1013.6 0.0 NNE 0.0 NW 0.0 0.0
02:00 14.3 15.3 92.3 1013.5 0.0 NNE 0.0 WNW 0.0 0.0
02:05 14.2 15.2 92.3 1013.5 0.0 NNE 0.0 W 0.0 0.0
02:10 14.2 15.1 92.3 1013.5 0.0 NNE 0.0 W 0.0 0.0
02:15 14.1 15.1 92.5 1013.4 0.0 NNE 0.0 W 0.0 0.0
02:20 14.0 15.0 92.6 1013.3 0.0 NNE 0.0 W 0.0 0.0
02:25 13.9 14.9 92.7 1013.3 0.0 NNE 0.0 N 0.0 0.0
02:30 13.8 14.8 92.7 1013.1 0.0 NNE 0.0 N 0.0 0.0
02:35 13.7 14.8 92.8 1013.1 0.0 NNE 0.0 N 0.0 0.1
02:40 13.7 14.8 92.8 1013.0 0.0 NNE 0.0 NNW 0.0 0.0
02:45 13.6 14.7 92.8 1013.0 0.0 NNE 0.0 N 0.0 0.0
02:50 13.6 14.7 92.7 1012.9 0.0 NNE 0.0 NE 0.0 0.0
Màxima 16.1 17.0 92.8 1014.3 0.0 NNE 0.0 NE 0.0 2.6
Mínima 13.5 14.7 88.0 1012.9
Total 0.0